Flag for U.S.A. Weather past 2 weeks in Pullman, Washington, U.S.A.

Now
56 °F

Clear.


Feels Like: 53 °F
Forecast: 50 / 81 °F
Wind: 10 mph from Northeast

Location: Pullman / Moscow Regional Airport

Current Time: Sep 20, 2014 at 7:03:15 AM

Latest Report: Sep 20, 2014 at 5:53 AM


Visibility: 10 mi

Pressure: 30.14 "Hg

Humidity: 65%

Dew point: 44 °F

Location of PullmanLocation

Historic Weather in Pullman — Graph

°F

Pullman temperature yesterday

Maximum temperature yesterday: 73 °F (at 4:53 PM)
Minimum temperature yesterday: 48 °F (at 6:53 AM)
Average temperature yesterday: 62 °F

Past Weeks' High & Low Weather Summary

 TemperatureHumidityPressure
High87 °F (Sep 15, 3:53 PM)83% (Sep 19, 6:53 AM)30.42 "Hg (Sep 19, 6:53 AM)
Low34 °F (Sep 11, 6:53 AM)10% (Sep 7, 2:53 PM)29.63 "Hg (Sep 18, 12:53 AM)
Average62 °F35%29.99 "Hg
* Reported Sep 5 5:53 AM — Sep 20 5:53 AM, Pullman, Weather by CustomWeather, © 2014

Note: Actual official high and low records may vary slightly from our data, if they occured in-between our weather recording intervals... More about our weather records

Advertising

Pullman weather history for previous 24 hours

 ConditionsComfort  
Time TempWeatherWind HumidityBarometerVisibility
5:53 AM
Sep 20
56 °FClear.10 mph65%30.14 "Hg10 mi
4:53 AM55 °FClear.5 mph67%30.13 "Hg10 mi
3:53 AM56 °FClear.3 mph65%30.13 "Hg10 mi
2:53 AM57 °FClear.6 mph62%30.12 "Hg10 mi
1:53 AM50 °FClear.No wind68%30.13 "Hg10 mi
12:53 AM55 °FClear.No wind64%30.11 "Hg10 mi
11:53 PM
Sep 19
54 °FClear.No wind62%30.11 "Hg10 mi
10:53 PM55 °FClear.No wind59%30.10 "Hg9 mi
9:53 PM54 °FClear.No wind57%30.10 "Hg8 mi
8:53 PM58 °FClear.No wind54%30.09 "Hg8 mi
7:53 PM61 °FClear.No wind48%30.08 "Hg9 mi
6:53 PM67 °FSunny.No wind42%30.06 "Hg10 mi
5:53 PM73 °FSunny.No wind36%30.05 "Hg10 mi
4:53 PM73 °FSunny.6 mph37%30.06 "Hg10 mi
3:53 PM72 °FSunny.7 mph38%30.06 "Hg10 mi
2:53 PM72 °FSunny.6 mph40%30.06 "Hg10 mi
1:53 PM71 °FSunny.7 mph42%30.07 "Hg10 mi
12:53 PM72 °FSunny.12 mph41%30.07 "Hg10 mi
11:53 AM71 °FSunny.10 mph44%30.07 "Hg10 mi
10:53 AM69 °FScattered clouds.14 mph47%30.07 "Hg10 mi
9:53 AM65 °FSunny.8 mph56%30.07 "Hg10 mi
8:53 AM61 °FSunny.3 mph62%30.06 "Hg10 mi
7:53 AM56 °FSunny.No wind72%30.05 "Hg10 mi
Weather by CustomWeather, © 2014

See weather overviewHow to use our weather pages